www.pogodaiklimat.ru

Погода и климат >> Архив погоды >> Россия >> Якутия >> Себян-Кюель


ПОГОДА в Себян-Кюеле

  • Прогноз погоды в Себян-Кюеле
  • Монитор погоды в Себян-Кюеле

АРХИВ ПОГОДЫ в Себян-Кюеле

Время (UTC), дата Ветер
(напр.,м/с)
 
Видим.   Явления Облачность Т
(С)
Тd
(С)
f
(%)
Тe
(С)
Тes
(С)
Комфортность P
(гПа)
Po
(гПа)
Тmin
(С)
Tmax
(С)
R
(мм)
R24
(мм)
S
(см)
12 16.07 В 1 20 км дым 8/0
[Ac As]
+13.3 +9.2 76 +14 +14 1009.2 920.8 +17.4
15 16.07 штиль 0 20 км дым 4/0
[Ac trans]
+5.6 +4.9 95 +4 +4 1011.6 920.6
18 16.07 штиль 0 н/о н/о +1.9 +1.6 98 +1 +1 1012.2 919.9
21 16.07 З 1 20 км дым 6/0
[Ac trans]
+7.8 +5.9 88 +7 +7 1008.3 918.3
00 17.07 штиль 0 20 км дым 10/10 1000 м
[Sc]
+10.9 +7.6 80 +10 +10 1005.7 916.9 +1.2
03 17.07 З 3 4000 м ливневой дождь 10/10 1000 м
[Cb cap]
+13.3 +9.8 79 +12 +12 1003.5 915.6
06 17.07 З 1 50 км {ливн. осадки} 10/10 1000 м
[Cb cap]
+12.7 +11.0 89 +13 +13 999.9 912.2
09 17.07 Ю 2 50 км {ливн. осадки} 10/10 1000 м
[Cb cap]
+12.1 +11.0 93 +11 +11 997.8 910.1
12 17.07 С 5 4000 м ливневой дождь 10/10 1000 м
[Cb cap]
+10.4 +8.4 87 +7 +7 998.6 910.3 +16.4 11
15 17.07 В 2
{14}
4000 м ливневой дождь 10/10 1000 м
[Cb cap]
+8.9 +6.3 84 +7 +7 1001.7 912.6
18 17.07 В 2 н/о н/о +6.9 +3.7 80 +5 +5 1003.9 914.0
21 17.07 В 2 н/о н/о +4.2 +1.3 81 +2 +2 1007.3 916.2
00 18.07 ЮВ 2 50 км 10/10 700 м
[Sc]
+3.6 -0.6 74 +1 +1 1009.9 918.3 +2.8 2
03 18.07 СВ 2 50 км 10/10 720 м
[Sc]
+4.5 -0.6 69 +2 +2 1010.3 919.0
06 18.07 В 3
{10}
50 км 10/10 720 м
[Sc]
+4.4 +0.5 76 +1 +1 1012.0 920.5
09 18.07 В 2 10 км 10/10 330 м
[St]
+2.8 +0.1 82 -0 -0 1014.4 922.2
12 18.07 В 2 4000 м дождь 10/10 500 м
[Sc]
+3.0 -0.2 79 0 0 1014.9 922.7 +4.8 0.6
15 18.07 В 2 10 км дым {дождь} 10/10 500 м
[Sc]
+3.0 -0.5 78 0 0 1014.8 922.6
18 18.07 В 3 10 км дым {дождь} 10/10 540 м
[Sc]
+2.7 -0.5 79 -1 -1 1014.2 922.0
21 18.07 В 2 10 км дым 10/10 500 м
[Sc]
+2.3 -0.7 81 -1 -1 1015.0 922.6
00 19.07 СЗ 3 20 км дым 10/10 540 м
[Sc]
+2.5 -1.1 77 -1 -1 1015.5 923.1 +2.3 0.0
03 19.07 В 1
{12}
20 км слаб. дождь 10/10 600 м
[Sc]
+3.6 -0.1 77 +2 +2 1016.1 924.0
06 19.07 СВ 3 4000 м дождь 10/10 540 м
[Sc]
+4.1 +0.1 75 +1 +1 1017.2 925.1
09 19.07 С 4
{10}
20 км слаб. дождь 10/10 480 м
[Sc]
+3.9 -0.4 74 -0 -0 1018.9 926.7
12 19.07 штиль 0 4000 м дождь 10/10 300 м
[Sc]
+3.5 +0.9 83 +3 +3 1019.5 927.1 +4.5 2
15 19.07 З 3 10 км дождь 10/10 800 м
[Sc]
+4.4 +2.2 86 +1 +1 1019.3 927.2
18 19.07 С 1 н/о н/о +4.6 +2.0 83 +3 +3 1020.3 928.1
21 19.07 штиль 0 н/о н/о +4.7 +1.3 79 +4 +4 1021.7 929.4
00 20.07 С 3 н/о н/о +5.2 +1.2 75 +2 +2 1022.5 930.3 +3.3
03 20.07 ЮВ 1 н/о н/о +8.1 +1.9 65 +8 +8 1021.6 930.4
06 20.07 В 3 н/о н/о +11.7 +3.3 56 +10 +10 1019.1 929.3
09 20.07 В 2 н/о н/о +13.9 +2.0 44 +14 +14 1017.9 928.8
12 20.07 штиль 0 н/о н/о +7.5 +4.1 79 +7 +7 1020.5 929.3 +14.0
15 20.07 З 1 н/о н/о +0.5 -0.4 94 -2 -2 1023.8 930.0
18 20.07 З 2 н/о н/о -0.3 -1.2 94 -4 -4 1024.5 930.3
21 20.07 З 2 н/о н/о +5.0 +1.3 77 +3 +3 1022.4 930.2
00 21.07 СЗ 1 50 км 8/0
[Ci fib]
+16.3 +3.5 42 +17 +24 1016.9 928.6 -0.9
03 21.07 З 4
{10}
н/о н/о +19.5 +0.1 27 +20 +26 1014.5 927.2
06 21.07 З 4 50 км 6/0
[Ci fib]
+21.2 -0.8 23 +21 +26 комфорт 1012.7 926.1
09 21.07 З 3 н/о +21.0 +0.4 25 +21 +23 комфорт 1012.4 925.8
12 21.07 штиль 0 50 км 3/0
[Ac trans]
+14.6 +4.8 52 +14 +15 1014.4 925.8 +21.7
15 21.07 З 1 50 км 8/8 1000 м
[Sc]
+8.4 +5.5 82 +8 +8 1017.2 926.6
18 21.07 СЗ 1 20 км дым 10/10 1000 м
[Sc]
+7.8 +5.6 86 +7 +7 1018.1 927.3
21 21.07 СВ 1 10 км дым 8/8 1000 м
[Sc]
+9.8 +5.7 76 +9 +10 1018.7 928.4
00 22.07 В 2 10 км дым 8/8 1000 м
[Sc]
+10.8 +5.4 69 +10 +11 1018.7 928.7 +6.7
03 22.07 В 3 10 км дым 5/5 1000 м
[Sc]
+14.8 +6.1 56 +14 +19 1017.4 928.7
06 22.07 ЮВ 3 20 км дым ясно +15.8 +3.7 44 +15 +22 1016.5 928.1
09 22.07 В 3 20 км дым ясно +15.3 +3.5 45 +15 +17 1016.7 928.1
12 22.07 В 1 20 км дым ясно +9.8 +3.6 65 +10 +10 1019.3 928.8 +16.2
15 22.07 штиль 0 н/о н/о +0.2 -0.3 96 -1 -1 1023.5 929.6
18 22.07 З 1 н/о н/о -2.9 -3.2 98 -5 -5 1024.8 929.7
21 22.07 штиль 0 н/о н/о +2.7 +0.6 86 +2 +2 1022.4 929.5
00 23.07 В 1 н/о н/о +12.1 +3.4 55 +12 +12 1018.0 928.4 -2.9
03 23.07 СВ 2 н/о н/о +16.7 -0.7 31 +17 +17 1014.6 926.6

 

Местоположение метеостанции Себян-Кюель (Якутия, Россия): широта 65.30 долгота 130.00 высота над уровнем моря 777 м.

В архиве по умолчанию представлена погода в Себян-Кюеле за последнюю неделю. Архивные данные за месяц целиком и за предыдущие месяцы, начиная с января 2011 года, Вы можете получить, выбрав интересующий диапазон дат из раскрывающегося списка и нажав кнопку "Ввод!".


*Определитесь, кто Вы:
робот инопланетянин человек

Внимание! Время в таблицах - всемирное. Для получения местного времени необходимо прибавить поправку, которая равна 9 ч.

Смотрите также архив погоды в соседних городах и на ближайших метеорологических станциях:

Погода в Сеген-Кюеле (Якутия, Россия) (145 км)
Погода в Екюччю (Якутия, Россия) (179 км)
Погода в Сангаре (Якутия, Россия) (195 км)
Погода в Батамае (Якутия, Россия) (200 км)
Погода в Сого-Хае (Якутия, Россия) (205 км)
Погода в Верхоянском Перевозе (Якутия, Россия) (240 км)
Погода в Иэме (Якутия, Россия) (269 км)
Погода в Бестяхской Звероферме (Якутия, Россия) (274 км)
Погода в Батагай-Алыте (Якутия, Россия) (276 км)
Погода в Намцах (Якутия, Россия) (288 км)

Пояснения к столбцам:

Ветер - указаны скорость ветра в м/с - средняя за 10 мин, порывы в срок и между сроками (в фигурных скобках) и направление, откуда дует ветер: С - северный, СВ - северо-восточный, В - восточный, ЮВ - юго-восточный, Ю - южный, ЮЗ - юго-западный, З - западный, СЗ - северо-западный.
Видимость - горизонтальная дальность видимости в метрах или километрах. При видимости от 1 до 10 км при отсутствии осадков обычно наблюдается дымка, при ухудшении видимости до 1 км и менее - туман. В сухую погоду видимость может ухудшаться дымом, пылью или мглою.
Явления - указаны атмосферные явления, наблюдавшиеся в срок или в последний час перед сроком; фигурными скобками обозначены явления, наблюдавшиеся между сроками (за 1-3 часа до срока); квадратными скобками обозначены град или гололедные отложения с указанием их диаметра в мм.
Облачность - указаны через наклонную черту общая и нижняя облачность в баллах и высота нижней границы облаков в метрах; квадратными скобками обозначены формы облаков: Ci - перистые, Cs - перисто-слоистые, Cc - перисто-кучевые, Ac - высококучевые, As - высокослоистые, Sc - слоисто-кучевые, Ns - слоисто-дождевые, Cu - кучевые, Cb - кучево-дождевые. Подробнее классификацию облаков см. в Атласе облаков (PDF).
T - Температура воздуха - температура, измеренная на высоте 2 м над землей.
Td - Температура точки росы - температура, при понижении до которой содержащийся в воздухе водяной пар достигнет насыщения.
f - Относительная влажность воздуха - влажноcть воздуха, измеренная на высоте 2 м над землей.
Te - Эффективная температура - температура, которую ощущает одетый по сезону человек в тени. Характеристика душности погоды. При расчете учитывается влияние влажности воздуха и скорости ветра на теплоощущения человека.
Tes - Эффективная температура на солнце - температура, которую ощущает человек, с поправкой на солнечный нагрев. Характеристика знойности погоды. Зависит от высоты солнца над горизонтом, облачности и скорости ветра. Ночью, в пасмурную погоду, а также при ветре 12 м/с и более поправка равна нулю.
P - Атмосферное давление - приведенное к уровню моря атмосферное давление.
Po - Атмосферное давление - измеренное на уровне метеостанции атмосферное давление.
Tmin - Минимальная температура - минимум температуры воздуха на высоте 2 м над землей.
Tmax - Максимальная температура - максимум температуры воздуха на высоте 2 м над землей.
R - Количество осадков - Количество выпавших осадков за период времени, мм. При наведении курсора мыши на число - период времени, за который выпало указанное количество осадков.
R24 - Количество осадков - Количество выпавших осадков за 24 часа, мм.
S - Снежный покров - Высота снежного покрова, см. При наведении курсора мыши на число - состояние снежного покрова и степень покрытия местности в баллах.